This is the latest recevied weather packets stored in our database for station/object N6RDS. If no packets are shown the sender has not sent any weather packets the latest 10 day(s).
| Time | Temp. | Humidity | Pressure | Rain* | Wind** | Luminosity | Snow |
|---|---|---|---|---|---|---|---|
| 1777550190 | -1.67° C | 64% | 1023.1 hPa | 0 mm | - | 0 W/m² | - |
| 1777549887 | -1.67° C | 65% | 1023.4 hPa | 0 mm | - | 0 W/m² | - |
| 1777549582 | -1.67° C | 64% | 1023.6 hPa | 0 mm | - | 0 W/m² | - |
| 1777549279 | -1.67° C | 63% | 1023.3 hPa | 0 mm | - | 0 W/m² | - |
| 1777548976 | -1.11° C | 62% | 1023.1 hPa | 0 mm | - | 0 W/m² | - |
| 1777548672 | -1.11° C | 62% | 1023.4 hPa | 0 mm | - | 0 W/m² | - |
| 1777548370 | -1.11° C | 62% | 1023.3 hPa | 0 mm | - | 0 W/m² | - |
| 1777548067 | -1.67° C | 62% | 1023.2 hPa | 0 mm | - | 0 W/m² | - |
| 1777547762 | -1.11° C | 61% | 1023.3 hPa | 0 mm | - | 0 W/m² | - |
| 1777547458 | -1.11° C | 60% | 1023.4 hPa | 0 mm | - | 0 W/m² | - |
| 1777547156 | -1.11° C | 60% | 1023.6 hPa | 0 mm | - | 0 W/m² | - |
| 1777546853 | -1.11° C | 60% | 1023.6 hPa | 0 mm | - | 0 W/m² | - |
| 1777546550 | -0.56° C | 59% | 1023.4 hPa | 0 mm | - | 0 W/m² | - |
| 1777546247 | -1.11° C | 59% | 1023.7 hPa | 0 mm | - | 0 W/m² | - |
| 1777545944 | -0.56° C | 58% | 1023.6 hPa | 0 mm | - | 0 W/m² | - |
| 1777545640 | -1.11° C | 59% | 1023.8 hPa | 0 mm | - | 0 W/m² | - |
| 1777545337 | -1.11° C | 59% | 1023.8 hPa | 0 mm | - | 0 W/m² | - |
| 1777545035 | -1.11° C | 59% | 1024 hPa | 0 mm | - | 0 W/m² | - |
| 1777544731 | -1.11° C | 59% | 1023.7 hPa | 0 mm | - | 0 W/m² | - |
| 1777544427 | -1.11° C | 59% | 1024 hPa | 0 mm | - | 0 W/m² | - |
| 1777544123 | -1.11° C | 58% | 1024 hPa | 0 mm | - | 0 W/m² | - |
| 1777543821 | -0.56° C | 57% | 1024 hPa | 0 mm | - | 0 W/m² | - |
| 1777543516 | -0.56° C | 57% | 1024.2 hPa | 0 mm | - | 0 W/m² | - |
| 1777543213 | -0.56° C | 56% | 1024.2 hPa | 0 mm | - | 0 W/m² | - |
| 1777542909 | 0° C | 55% | 1024 hPa | 0 mm | - | 0 W/m² | - |
* Rain latest hour (hover to see other rain measurements)
** Current wind speed in m/s (hover to see current wind gust speed)